Weather in Al'met'yevo

Russia / Republic of Tatarstan     55°15′10″N   52°42′51″E
temp.,
°C
wind,
m/s
gust,
m/s
humid.,
%
clouds,
%
prec.,
mm/h
press.,
hPa
HPBL,
m
12 may, wed
wed1200:00+15ese2250100 0.0 102711
03:00+14e22545 0.0 102811
06:00+17ese135216 0.0 1028110
09:00+22e333949 0.0 1028611
12:00+25e453488 0.0 10282404
15:00+25ese55315 0.0 10272357
18:00+22e33455 0.0 102739
21:00+17sse225140 0.0 102711
13 may, thu
thu1300:00+16ssw2255100 0.0 102812
03:00+15sse1252100 0.0 102811
06:00+18se235141 0.0 1028106
09:00+22se453965 0.0 1028809
12:00+25sse563563 0.0 10271889
15:00+26s4632100 0.0 10262166
18:00+23sse22482 0.0 102533
21:00+18sse225921 0.0 102617
14 may, fri
fri1400:00+16sse22525 0.0 102616
03:00+15sse33535 0.0 102621
06:00+18sse385481 0.0 1026209
09:00+24s57385 0.0 1025678
12:00+27ssw573078 0.0 10241634
15:00+27ssw67315 0.0 10241717
18:00+23ssw3751100 0.0 1023131
21:00+19s3556100 0.0 102382
15 may, sat
sat1500:00+17ssw355662 0.0 102367
03:00+16s3355100 0.0 102331
06:00+19s385537 0.0 1024229
09:00+25ssw5736100 0.0 1023733
12:00+27ssw682994 0.0 10221423
15:00+28sw672940 0.0 10211741
18:00+24ssw344764 0.0 102164
21:00+20ssw33505 0.0 102042
16 may, sun
sun1600:00+18ssw33485 0.0 102035
03:00+17ssw33515 0.0 102029
06:00+20s36530 0.0 1020167
09:00+26ssw46360 0.0 1019608
12:00+29sw67300 0.0 10192794
15:00+29sw673036 0.0 10183352
18:00+25s22456 0.0 101720
21:00+22ssw61246100 0.1 1018239